Regional Weather Roundup
Issued by NWS

Home | Current Version | Previous Version | Graphics & Text | Print | Product List | Glossary On
Versions: 1 2 3 4 5 6 7 8 9 10 11 12 13 14 15 16 17 18 19 20 21 22 23 24 25 26 27 28 29 30 31 32 33 34 35 36 37 38 39 40 41 42 43 44 45 46 47 48 49 50
000
ASUS43 KOAX 290810
RWRNE

WEATHER ROUNDUP FOR NEBRASKA
NATIONAL WEATHER SERVICE OMAHA NE
300 AM CDT TUE JUL 29 2014

NOTES: SATELLITE DATA IS BEING USED TO AUGMENT CLOUD COVER ABOVE
       12000 FEET.
       "FAIR" INDICATES FEW OR NO CLOUDS BELOW 12,000 FEET WITH NO
       SIGNIFICANT WEATHER AND/OR OBSTRUCTIONS TO VISIBILITY.

  * THESE STATIONS DO NOT REPORT WEATHER SUCH AS RAIN...SNOW OR FOG.

NEZ001>004-019>022-054>056-290900-
NEBRASKA PANHANDLE

CITY           SKY/WX    TMP DP  RH WIND       PRES   REMARKS
SCOTTSBLUFF    PTCLDY    65  59  81 E8        30.21F
ALLIANCE       PTCLDY    61  57  87 E9        30.23S
CHADRON        CLEAR     62  53  72 NE8       30.23S
KIMBALL        PTCLDY    61  56  82 SW7       30.24F
SIDNEY         PTCLDY    59  50  72 E6        30.24S
$$

NEZ057>060-069>072-079>082-290900-
SOUTHWEST NEBRASKA

CITY           SKY/WX    TMP DP  RH WIND       PRES   REMARKS
NORTH PLATTE   CLEAR     58  56  93 SE5       30.23F
IMPERIAL       MOCLDY    62  57  83 SE9       30.21F
LEXINGTON      CLEAR     63  58  83 SE7       30.24S
MCCOOK         MOCLDY    64  57  78 E9        30.21F
OGALLALA       CLEAR     61  57  88 E9        30.22S
$$

NEZ005>010-023>029-035>040-094-290900-
NORTH CENTRAL NEBRASKA

CITY           SKY/WX    TMP DP  RH WIND       PRES   REMARKS
VALENTINE      PTCLDY    58  51  78 E6        30.25F
AINSWORTH      CLEAR     56  54  94 E5        30.26S
BROKEN BOW     PTCLDY    61  57  87 E6        30.24F
O`NEILL        CLEAR     54  50  88 CALM      30.24S
ORD            MOCLDY    58  56  93 CALM      30.24S THUNDER
THEDFORD       PTCLDY    58  55  89 CALM      30.25S
$$

NEZ041-046>049-061>064-073>077-083>087-290900-
SOUTH CENTRAL NEBRASKA

CITY           SKY/WX    TMP DP  RH WIND       PRES   REMARKS
GRAND ISLAND   LGT RAIN  63  58  83 CALM      30.24R
AURORA         CLOUDY    62  61  96 CALM      30.23S
HASTINGS       CLOUDY    66  55  67 SE3       30.23S
HEBRON         MOCLDY    62  57  84 CALM      30.21S
HOLDREGE       PTCLDY    60  57  88 SE6       30.23S
KEARNEY *      PTCLDY    63  55  77 E6        30.24S
YORK           PTCLDY    57  57 100 CALM      30.23R
$$

NEZ011>018-030>034-042>045-290900-
NORTHEAST NEBRASKA

CITY           SKY/WX    TMP DP  RH WIND       PRES   REMARKS
NORFOLK        CLEAR     55  52  89 CALM      30.21F
ALBION         CLEAR     55  51  89 CALM      30.24R
BLAIR          CLEAR     60  55  83 N7        30.19F
COLUMBUS *     CLEAR     57  52  82 W3        30.21S
FREMONT        CLEAR     60  56  85 CALM      30.19F
TEKAMAH        CLEAR     56  53  90 N5        30.20S
WAYNE          CLEAR     53  52  95 CALM      30.22S
$$

NEZ050>053-065>068-078-088>093-290900-
SOUTHEAST NEBRASKA

CITY           SKY/WX    TMP DP  RH WIND       PRES   REMARKS
LINCOLN        CLEAR     62  53  72 W6        30.21R
OMAHA EPPLEY   CLEAR     59  56  89 N5        30.19F
BEATRICE       CLEAR     55  54  95 CALM      30.19S
FALLS CITY     CLEAR     58  55  90 CALM      30.17F
NEBRASKA CITY  CLEAR     59  55  85 N3        30.18F
PLATTSMOUTH    CLEAR     61  55  82 N3        30.18F
$$

NEZ044-045-051>053-067-290900-
OMAHA AREA

CITY           SKY/WX    TMP DP  RH WIND       PRES   REMARKS
OMAHA EPPLEY   CLEAR     59  56  89 N5        30.19F
BLAIR          CLEAR     60  55  83 N7        30.19F
FREMONT        CLEAR     60  56  85 CALM      30.19F
MILLARD        CLEAR     61  56  85 CALM      30.19S
OFFUTT AFB     CLEAR     55  55  99 CALM      30.18F
PLATTSMOUTH    CLEAR     61  55  82 N3        30.18F
WAHOO          FAIR      57  53  88 N7        30.19F
$$


USA.gov is the U.S. government's official web portal to all federal, state and local government web resources and services.